Location: Tehachapi Municipal Airport
(35.1300°N, 118.4400°W)
Time: 01:41:03
(UTC-07:00)

BREEZE M DEB (TANK) - Visible Passes

Search period start: 25 June 2016 00:00
Search period end: 05 July 2016 00:00
Orbit: 291 x 12030 km, 49.5° (Epoch: 23 June)

Date Brightness Start Highest point End Pass type
(mag) Time Alt. Az. Time Alt. Az. Time Alt. Az.
25 Jun 7.5 20:18:16 10° NW 21:43:17 46° W 22:17:59 10° SSW visible
26 Jun 7.5 19:26:10 10° NW 20:58:34 57° WSW 21:35:17 10° S visible
27 Jun 7.5 18:35:08 10° NW 20:12:16 68° WSW 20:51:51 10° SSE visible
28 Jun 8.3 22:47:42 10° WNW 23:20:09 14° WNW 23:44:03 10° WSW visible
29 Jun 8.0 21:43:37 10° NW 22:39:13 23° W 23:12:00 10° SW visible
30 Jun 7.8 20:46:48 10° NW 21:57:16 32° W 22:33:26 10° SW visible
01 Jul 7.7 19:53:04 10° NW 21:14:14 42° W 21:52:29 10° SSW visible
02 Jul 7.7 19:01:08 10° NW 20:29:56 53° WSW 21:10:13 10° S visible
04 Jul 8.7 22:31:31 10° WNW 22:49:29 11° WNW 23:05:18 10° W visible
